STARLINK-35940, 66617

Orbit data source: Space-Track

STARLINK-35940, 66617 is a payload satellite owned by SpaceX/Seattle (US) in LEO that was launched on Sun, 23 Nov 2025 UTC via an FALCON 9 launch vehicle from the Air Force Western Test Range (AFWTR). Payload-class satellites include a variety of spacecraft equipped with specific instruments for various scientific and technological missions. These include communications satellites like Starlink; space stations such as the ISS; scientific satellites like the Hubble; Earth observation satellites from companies like Planet Labs, Umbra, and HawkEye 360; GPS; miniature CubeSats for education and research; and military/defense satellites.

Loading next visibility...
Identifier
66617, 2025-271A
Orbit
LEO
Country
Flag of USUS
Related business
Manufacturer
SpaceX/Seattle
Mission
Operational Commercial Communications
Bus & Motor
STARLINK V2MO, Unknown motor
Mass
575 kg wet, ~530 kg dry
Launch date (UTC)
2025-11-23 (1 month ago)
Launch vehicle
FALCON 9
Launch site
Air Force Western Test Range (AFWTR)
Object type
Payload
Rocket body
Debris
Shape & HBR
Box + 2 Pan, 17.7 m
Radar Cross Section
36.964 m²

Expand to show TLE details & history
Last TLE update: 11 hours ago

TLE from 11 hours ago
0 STARLINK-35940
1 66617U 25271A   25355.14903219  .00041160  00000-0  10329-2 0  9991
2 66617  53.1602 147.4589 0001607  88.6329 271.4860 15.39636320  5509
Epoch: 2025-12-21T03:34Z
TLE epoch observation values (Epoch: 2025-12-21T03:34:36.381Z)
Latitude
-0°
Longitude
3.84168°
Altitude
448.059 km
Speed
7.645 km/s
True Right ascension
09h 49m 50s
True Declination
0° 00' 00"
Sunlit
Object was in full shadow at epoch
Visualization orbit readout
Latitude
Unknown
Longitude
Unknown
Altitude
Unknown
Speed
Unknown
Apparent Right ascension
Unknown
Apparent Declination
Unknown
Sunlit
N/A
Visualization observer readout
Local Sidereal Time
13:57:21
Azimuth
Unknown
Elevation
Unknown
Doppler factor
Unknown
Orbital elements
Apogee altitude
448.538 km
Perigee altitude
446.344 km
Semi-major axis
6,825.578 km
Eccentricity
0.00016
Inclination
53.1602°
RAAN
147.4589°
Arg. of periapsis
88.6329°
True anomaly
271.46759°
Mean anomaly
271.486°
Eccentric anomaly
271.4768°
Mean motion
3.84888 °/min
Orbital period
93.53 mins
BSTAR
0.0010329
Loading maneuver chart data...
Computing Atmospheric mass density...
Loading historical data...
Loading historical data...
Loading historical data...
Loading historical data...
Loading historical data...
Loading historical data...
Loading historical data...

Documentation

Showing up to 5 results
|